GW3140 Weather Reports


time (UTC)temp
C
wind
direction
speed
KPH
gust
KPH
rain 1hr
cm
rain 24hr
cm
rain mn
cm
humidity
%
barometer
mb
20260506034010 9 0 0.0 4.8 0.00 0.08 0.08 89 1008.1
20260506033511 9 202 0.0 4.8 0.00 0.08 0.08 88 1008.3
20260506033029 9 0 0.0 4.8 0.00 0.08 0.08 88 1008.5
20260506032511 9 0 0.0 1.6 0.00 0.08 0.08 88 1008.4
20260506032011 9 0 0.0 1.6 0.00 0.08 0.08 88 1008.5
20260506031530 9 0 0.0 0.0 0.00 0.08 0.08 87 1008.5
20260506031012 9 0 0.0 0.0 0.00 0.08 0.08 87 1008.8
20260506030511 9 0 0.0 0.0 0.00 0.08 0.08 87 1008.7
20260506030028 9 0 0.0 0.0 0.00 0.08 0.08 86 1008.7
20260506025512 9 0 0.0 0.0 0.00 0.08 0.08 86 1008.7
20260506025012 9 0 0.0 0.0 0.00 0.08 0.08 86 1008.5
20260506024540 9 0 0.0 0.0 0.00 0.08 0.08 85 1008.4
20260506024012 9 0 0.0 0.0 0.00 0.08 0.08 85 1008.4
20260506023514 9 0 0.0 0.0 0.00 0.08 0.08 85 1008.4
20260506023030 9 0 0.0 0.0 0.00 0.08 0.08 84 1008.4
20260506022511 9 0 0.0 0.0 0.00 0.08 0.08 84 1008.3
20260506022011 9 0 0.0 1.6 0.00 0.08 0.08 84 1008.5
20260506021543 9 0 0.0 1.6 0.00 0.08 0.08 83 1008.4
20260506021013 9 0 0.0 1.6 0.00 0.08 0.08 83 1008.5
20260506020513 9 0 0.0 1.6 0.00 0.08 0.08 83 1008.1
20260506020030 9 0 0.0 0.0 0.00 0.08 0.08 83 1008.2
20260506015512 9 0 0.0 0.0 0.00 0.36 0.08 83 1008.5
20260506015015 9 0 0.0 0.0 0.00 0.36 0.08 83 1008.5
20260506014530 9 0 0.0 0.0 0.00 0.36 0.08 83 1008.4
20260506014012 9 0 0.0 0.0 0.00 0.36 0.08 83 1008.4
20260506013512 9 0 0.0 0.0 0.00 0.36 0.08 83 1008.4
20260506013029 9 0 0.0 0.0 0.00 0.36 0.08 83 1008.3
20260506012512 9 0 0.0 0.0 0.00 0.36 0.08 83 1008.2
20260506012012 9 0 0.0 0.0 0.00 0.36 0.08 83 1008.1
20260506011531 9 0 0.0 0.0 0.00 0.36 0.08 83 1008.2
20260506011010 9 0 0.0 0.0 0.00 0.36 0.08 83 1008.1
20260506010512 9 0 0.0 0.0 0.00 0.36 0.08 82 1008.0
20260506010043 9 0 0.0 0.0 0.00 0.36 0.08 82 1008.0
20260506005512 9 0 0.0 0.0 0.00 0.36 0.08 82 1007.9
20260506005015 10 0 0.0 0.0 0.00 0.36 0.08 82 1007.9
20260506004527 10 0 0.0 0.0 0.00 0.36 0.08 82 1007.9
20260506004010 10 0 0.0 0.0 0.00 0.36 0.08 82 1007.9
20260506003512 10 0 0.0 0.0 0.00 0.36 0.08 82 1007.9
20260506003029 10 0 0.0 0.0 0.00 0.36 0.08 82 1007.8
20260506002515 10 0 0.0 0.0 0.00 0.36 0.08 81 1007.8
20260506002010 10 0 0.0 0.0 0.00 0.36 0.08 81 1007.7
20260506001528 10 0 0.0 0.0 0.00 0.36 0.08 81 1007.7
20260506001010 10 0 0.0 0.0 0.00 0.36 0.08 80 1007.6
20260506000512 10 0 0.0 0.0 0.00 0.36 0.08 80 1007.5
20260506000031 10 0 0.0 0.0 0.00 0.36 0.08 80 1007.5
20260505235511 10 0 0.0 0.0 0.00 0.36 0.08 80 1007.5
20260505235013 10 0 0.0 0.0 0.00 0.36 0.08 80 1007.4
20260505234547 10 0 0.0 0.0 0.00 0.36 0.08 80 1007.5
20260505234013 10 0 0.0 0.0 0.00 0.36 0.08 80 1007.6
20260505233516 10 0 0.0 0.0 0.00 0.36 0.08 80 1007.6
20260505233033 10 0 0.0 0.0 0.00 0.36 0.08 80 1007.5
20260505232514 10 0 0.0 0.0 0.00 0.36 0.08 80 1007.7
20260505232012 10 0 0.0 0.0 0.00 0.36 0.08 80 1007.6
20260505231532 10 0 0.0 0.0 0.00 0.36 0.08 80 1007.7
20260505231012 10 0 0.0 0.0 0.00 0.36 0.08 78 1007.8
20260505230509 10 0 0.0 4.8 0.00 0.36 0.08 78 1007.8
20260505230031 10 0 0.0 4.8 0.00 0.36 0.08 78 1007.8
20260505225511 10 170 0.0 4.8 0.00 0.36 0.08 78 1007.7
20260505225012 10 0 0.0 1.6 0.00 0.36 0.08 77 1007.6
20260505224532 10 0 0.0 1.6 0.00 0.36 0.08 78 1007.7
20260505224016 10 0 0.0 1.6 0.00 0.36 0.08 79 1007.7
20260505223511 10 0 0.0 1.6 0.00 0.36 0.08 78 1007.7
20260505223029 10 0 0.0 3.2 0.00 0.36 0.08 78 1007.7
20260505222512 10 0 0.0 3.2 0.00 0.36 0.08 78 1007.6
20260505222013 10 0 0.0 0.0 0.00 0.36 0.08 78 1007.7
20260505221529 9 0 0.0 0.0 0.00 0.36 0.08 77 1007.7
20260505221012 9 0 0.0 4.8 0.00 0.36 0.08 76 1007.8
20260505220512 9 0 0.0 4.8 0.00 0.36 0.08 76 1007.8
20260505220031 9 209 0.0 4.8 0.00 0.36 0.08 76 1007.9
20260505215512 9 0 0.0 0.0 0.00 0.36 0.08 76 1007.9
20260505215012 9 0 0.0 0.0 0.00 0.36 0.08 77 1007.9
20260505214536 9 0 0.0 0.0 0.00 0.36 0.08 77 1007.8
20260505214015 9 0 0.0 0.0 0.00 0.36 0.08 76 1008.0
20260505213512 9 0 0.0 0.0 0.00 0.36 0.08 75 1008.0
20260505213027 9 0 0.0 0.0 0.00 0.36 0.08 77 1008.0
20260505212517 9 0 0.0 0.0 0.00 0.36 0.08 75 1008.1
20260505212013 9 0 0.0 0.0 0.00 0.36 0.08 76 1008.1
20260505211540 8 0 0.0 0.0 0.00 0.36 0.08 76 1007.9
20260505211013 8 0 0.0 0.0 0.00 0.36 0.08 76 1007.9
20260505210516 8 0 0.0 0.0 0.00 0.36 0.08 75 1007.9
20260505210029 8 0 0.0 0.0 0.00 0.36 0.08 75 1008.0
20260505205512 8 0 0.0 0.0 0.00 0.36 0.08 74 1008.1
20260505205013 8 0 0.0 0.0 0.00 0.36 0.08 75 1008.0
20260505204534 8 0 0.0 0.0 0.00 0.36 0.08 74 1008.1
20260505204010 8 0 0.0 0.0 0.00 0.36 0.08 75 1008.1
20260505203513 8 0 0.0 0.0 0.00 0.36 0.08 75 1008.3
20260505203046 8 0 0.0 0.0 0.00 0.36 0.08 74 1008.3
20260505202511 8 0 0.0 0.0 0.00 0.36 0.08 76 1008.3
20260505202012 8 0 0.0 0.0 0.00 0.36 0.08 75 1008.3
20260505201531 8 0 0.0 0.0 0.00 0.36 0.08 74 1008.4
20260505201018 8 0 0.0 0.0 0.00 0.36 0.08 76 1008.4
20260505200513 8 0 0.0 0.0 0.00 0.36 0.08 75 1008.4
20260505200028 8 0 0.0 0.0 0.00 0.36 0.08 78 1008.4
20260505195512 8 0 0.0 3.2 0.00 0.36 0.08 77 1008.3
20260505195012 8 0 0.0 3.2 0.00 0.36 0.08 76 1008.2
20260505194531 8 0 0.0 0.0 0.00 0.36 0.08 78 1008.3
20260505194016 8 0 0.0 1.6 0.00 0.36 0.08 77 1008.1
20260505193513 8 0 0.0 4.8 0.00 0.36 0.08 77 1008.1
20260505193030 8 0 0.0 4.8 0.00 0.36 0.08 77 1008.1
20260505192512 8 0 0.0 3.2 0.00 0.36 0.08 77 1008.0
20260505192012 8 269 0.0 3.2 0.00 0.36 0.08 78 1008.1
20260505191529 8 0 0.0 3.2 0.00 0.36 0.08 79 1008.1
20260505191012 8 0 1.6 3.2 0.03 0.36 0.08 78 1008.0
20260505190511 8 0 0.0 3.2 0.05 0.36 0.08 77 1007.7
20260505190031 8 0 0.0 3.2 0.05 0.36 0.08 76 1007.7
20260505185513 8 0 0.0 3.2 0.05 0.36 0.08 80 1007.9
20260505185011 8 269 0.0 4.8 0.05 0.36 0.08 79 1007.8
20260505184541 8 269 1.6 4.8 0.08 0.36 0.08 76 1007.7
20260505184014 8 0 0.0 3.2 0.08 0.36 0.08 77 1007.6
20260505183524 8 295 0.0 3.2 0.08 0.36 0.08 80 1007.5
20260505183039 8 0 0.0 1.6 0.08 0.36 0.08 78 1007.7
20260505182512 8 0 0.0 1.6 0.08 0.36 0.08 79 1007.6
20260505182013 8 0 0.0 1.6 0.08 0.36 0.08 76 1007.7
20260505181531 8 0 0.0 1.6 0.08 0.33 0.08 76 1007.4
20260505181010 8 0 0.0 1.6 0.05 0.30 0.05 73 1007.5
20260505180509 8 272 0.0 3.2 0.03 0.28 0.03 72 1007.5
20260505180031 8 0 0.0 4.8 0.03 0.28 0.03 71 1007.4
20260505175510 9 0 0.0 4.8 0.03 0.28 0.03 71 1007.4
20260505175013 9 0 0.0 1.6 0.03 0.28 0.03 72 1007.3
20260505174530 9 274 0.0 4.8 0.00 0.28 0.00 72 1007.3
20260505174011 10 0 0.0 4.8 0.00 0.25 0.00 66 1007.3
20260505173511 10 272 1.6 4.8 0.00 0.25 0.00 60 1007.3
20260505173028 10 291 0.0 6.4 0.00 0.25 0.00 59 1007.4
20260505172512 10 272 3.2 6.4 0.00 0.25 0.00 58 1007.3
20260505172011 10 275 3.2 6.4 0.00 0.25 0.00 60 1007.2
20260505171529 11 334 1.6 11.3 0.00 0.25 0.00 56 1006.9
20260505171013 11 282 3.2 11.3 0.00 0.25 0.00 58 1006.9
20260505170509 11 321 3.2 9.7 0.00 0.25 0.00 60 1006.9
20260505170035 11 299 3.2 9.7 0.00 0.25 0.00 59 1006.8
20260505165510 11 295 3.2 9.7 0.00 0.25 0.00 62 1006.8
20260505165012 11 272 3.2 9.7 0.00 0.25 0.00 59 1006.8
20260505164533 11 312 1.6 11.3 0.00 0.25 0.00 59 1006.9
20260505164010 11 276 4.8 11.3 0.00 0.25 0.00 59 1007.0
20260505163512 11 337 3.2 11.3 0.00 0.25 0.00 58 1006.9
20260505163033 11 268 4.8 11.3 0.00 0.25 0.00 59 1006.8
20260505162515 11 353 3.2 11.3 0.00 0.25 0.00 60 1006.7
20260505162012 11 271 3.2 9.7 0.00 0.25 0.00 60 1006.6
20260505161530 11 283 3.2 8.0 0.00 0.25 0.00 58 1006.6
20260505161012 11 333 3.2 8.0 0.00 0.25 0.00 59 1006.5
20260505160513 10 272 1.6 6.4 0.00 0.25 0.00 61 1006.4
20260505153031 10 325 3.2 9.7 0.00 0.25 0.00 63 1006.6
20260505152512 10 314 1.6 12.9 0.00 0.25 0.00 64 1007.0
20260505152012 10 286 3.2 12.9 0.00 0.25 0.00 63 1006.7
20260505151538 11 320 3.2 12.9 0.00 0.25 0.00 64 1006.7
20260505151013 11 280 4.8 12.9 0.00 0.25 0.00 65 1006.8
20260505150515 11 275 4.8 11.3 0.00 0.25 0.00 67 1006.3
20260505140516 11 330 3.2 14.5 0.00 0.25 0.00 61 1005.0
20260505125014 9 360 1.6 8.0 0.00 0.25 0.00 75 1003.6
20260505124536 9 1 1.6 8.0 0.00 0.25 0.00 76 1003.6
20260505124016 8 280 1.6 6.4 0.00 0.25 0.00 78 1003.9
20260505123518 8 289 1.6 11.3 0.00 0.25 0.00 78 1003.9
20260505123034 8 282 3.2 11.3 0.00 0.25 0.00 79 1004.0
20260505122513 8 260 3.2 11.3 0.00 0.25 0.00 80 1004.1
20260505122010 8 306 1.6 4.8 0.00 0.25 0.00 81 1003.9
20260505121537 8 303 1.6 6.4 0.00 0.25 0.00 80 1003.6
20260505121012 8 337 1.6 11.3 0.00 0.25 0.00 81 1003.4
20260505120512 7 273 3.2 11.3 0.00 0.25 0.00 81 1003.2
20260505120032 7 0 0.0 6.4 0.00 0.25 0.00 82 1003.1
20260505115512 7 270 1.6 9.7 0.00 0.25 0.00 82 1003.3
20260505115011 7 281 1.6 11.3 0.00 0.25 0.00 82 1003.3
20260505114529 7 272 3.2 11.3 0.00 0.25 0.00 83 1003.1
20260505114011 7 287 3.2 11.3 0.00 0.25 0.00 83 1003.1
20260505113510 7 275 1.6 11.3 0.00 0.25 0.00 84 1002.7
20260505113038 7 299 3.2 6.4 0.00 0.25 0.00 85 1002.6
20260505112513 7 265 1.6 6.4 0.00 0.25 0.00 84 1002.4
20260505112014 7 272 1.6 6.4 0.00 0.25 0.00 84 1001.8
20260505111541 7 280 3.2 4.8 0.00 0.25 0.00 83 1001.9
20260505111011 8 276 1.6 4.8 0.00 0.25 0.00 82 1001.7
20260505110514 8 274 0.0 6.4 0.00 0.25 0.00 82 1001.5
20260505102011 13 266 4.8 17.7 0.00 0.25 0.00 81 1000.8
20260505101534 13 216 1.6 9.7 0.00 0.25 0.00 80 1000.7
20260505101009 13 287 3.2 8.0 0.00 0.25 0.00 80 1000.8
20260505100510 13 263 3.2 14.5 0.00 0.25 0.00 80 1000.7
20260505100028 13 224 3.2 14.5 0.00 0.25 0.00 80 1000.5
20260505095512 13 249 1.6 8.0 0.00 0.25 0.00 79 1000.4
20260505095012 13 216 1.6 9.7 0.00 0.25 0.00 79 1000.4
20260505094527 13 210 3.2 12.9 0.00 0.25 0.00 79 1000.4
20260505094012 13 241 3.2 12.9 0.00 0.25 0.00 79 1000.4
20260505093512 13 216 4.8 12.9 0.00 0.25 0.00 79 1000.3
20260505093034 14 239 3.2 11.3 0.00 0.25 0.00 79 1000.2
20260505092516 14 204 3.2 11.3 0.00 0.25 0.00 78 1000.2
20260505092012 14 0 1.6 9.7 0.00 0.25 0.00 78 1000.1
20260505091530 14 214 3.2 9.7 0.00 0.25 0.00 78 999.9
20260505091010 14 207 1.6 8.0 0.00 0.25 0.00 78 999.8
20260505090511 14 192 1.6 16.1 0.00 0.25 0.00 78 999.8
20260505090031 14 261 3.2 16.1 0.00 0.25 0.00 77 999.7
20260505085512 14 0 1.6 12.9 0.00 0.25 0.00 77 999.8
20260505085012 14 180 3.2 20.9 0.00 0.25 0.00 77 999.8
20260505084532 14 256 4.8 20.9 0.00 0.25 0.00 77 999.9
20260505084011 15 232 3.2 9.7 0.00 0.25 0.00 76 999.7
20260505083512 15 267 1.6 9.7 0.00 0.25 0.00 76 999.4
20260505083033 15 222 1.6 14.5 0.00 0.25 0.00 75 999.5
20260505082512 15 140 3.2 17.7 0.00 0.25 0.00 75 999.3
20260505082010 15 214 3.2 17.7 0.00 0.25 0.00 75 999.2
20260505081530 15 216 4.8 17.7 0.00 0.25 0.00 75 999.2
20260505081013 15 175 3.2 16.1 0.00 0.25 0.00 74 999.1
20260505080514 15 163 3.2 9.7 0.00 0.25 0.00 75 999.2
20260505080031 15 237 1.6 12.9 0.00 0.25 0.00 75 999.1
20260505075511 15 213 4.8 12.9 0.00 0.25 0.00 74 999.2
20260505075012 15 198 3.2 12.9 0.00 0.25 0.00 74 999.4
20260505074531 15 185 1.6 12.9 0.00 0.25 0.00 74 999.3
20260505074012 15 250 0.0 12.9 0.00 0.25 0.00 73 999.3
20260505073509 15 223 1.6 12.9 0.00 0.25 0.00 73 999.2
20260505073031 15 206 3.2 12.9 0.00 0.25 0.00 72 999.3
20260505072512 16 275 3.2 14.5 0.00 0.25 0.00 72 999.3
20260505072013 16 209 4.8 14.5 0.00 0.25 0.00 72 999.2
20260505071532 16 235 4.8 12.9 0.00 0.25 0.00 72 999.1
20260505071013 16 172 3.2 9.7 0.00 0.25 0.00 73 999.1
20260505070511 16 253 3.2 12.9 0.00 0.25 0.00 73 999.0
20260505070030 16 204 3.2 14.5 0.00 0.25 0.00 72 998.9
20260505065513 16 212 4.8 14.5 0.00 0.25 0.00 71 999.1
20260505065013 16 202 3.2 16.1 0.00 0.25 0.00 71 999.1
20260505064533 16 185 4.8 16.1 0.00 0.25 0.00 71 999.3
20260505064010 16 175 3.2 16.1 0.00 0.25 0.00 71 999.2
20260505063512 16 196 4.8 16.1 0.00 0.25 0.00 71 999.4
20260505063031 16 225 3.2 16.1 0.00 0.25 0.00 70 999.5
20260505062512 16 185 4.8 16.1 0.00 0.25 0.00 70 999.6
20260505062012 16 180 4.8 16.1 0.00 0.25 0.00 70 999.7
20260505061547 16 200 4.8 14.5 0.00 0.25 0.00 70 999.7
20260505061013 16 193 3.2 17.7 0.00 0.25 0.00 70 999.8
20260505060511 16 193 6.4 17.7 0.00 0.25 0.00 70 1000.0
20260505060028 16 185 4.8 20.9 0.00 0.25 0.00 70 1000.1
20260505055512 16 0 6.4 20.9 0.00 0.25 0.00 70 1000.0
20260505055014 16 106 6.4 20.9 0.00 0.25 0.00 71 1000.0
20260505054542 16 168 6.4 16.1 0.00 0.25 0.00 71 1000.2
20260505054010 16 215 4.8 14.5 0.00 0.25 0.00 72 1000.1
20260505053512 16 208 3.2 17.7 0.00 0.25 0.00 71 1000.1
20260505053031 16 175 6.4 17.7 0.00 0.25 0.00 71 1000.2
20260505052512 16 189 1.6 16.1 0.00 0.25 0.00 71 1000.3
20260505052011 16 164 4.8 16.1 0.00 0.25 0.00 72 1000.3
20260505051531 16 234 8.0 16.1 0.00 0.25 0.00 72 1000.2
20260505051014 16 152 4.8 12.9 0.00 0.25 0.00 72 1000.2
20260505050515 16 213 6.4 16.1 0.00 0.25 0.00 72 1000.2
20260505041528 16 149 6.4 20.9 0.00 0.25 0.00 72 1000.0
20260505041011 16 133 3.2 20.9 0.00 0.25 0.00 72 1000.1
20260505040510 16 230 6.4 14.5 0.00 0.25 0.00 72 1000.2
20260505040040 16 205 3.2 12.9 0.00 0.25 0.00 72 1000.2
20260505035514 16 199 4.8 12.9 0.00 0.25 0.25 72 1000.2
20260505035017 16 210 3.2 17.7 0.00 0.25 0.25 72 1000.3
20260505034537 16 175 4.8 17.7 0.00 0.25 0.25 72 1000.3